RH
65 64 63 63 63 63 64 64 65 66 67 68 69 70 70 70 69 68 68 69 70 69 69 68 68 67 66 65 64 65 68 70 73 74 76 77 78 79 79 79 78 78 77 76 74 73 72 73 75 79 85 88 89 88 85 82 81 83 86 87 88 89 90 91 90 89 88 88 88 87 87 88 90 93 94 96 98 99 99 99 99 100 100 99 98 97
66 66 65 64 64 65 66 67 68 68 69 70 71 73 73 73 72 71 71 70 70 69 69 68 68 67 66 65 65 66 69 72 75 77 78 79 79 79 79 78 78 77 77 76 74 73 72 74 77 82 88 91 91 90 86 84 84 85 87 87 87 87 87 86 85 83 79 78 79 80 83 85 89 93 95 96 97 97 98 99 100 100 100 100 98 98
68 67 66 65 66 67 68 69 70 70 71 72 73 74 74 74 73 72 71 70 69 69 69 68 68 68 68 67 68 70 72 75 78 80 80 80 79 78 77 76 75 75 76 76 75 74 74 75 80 86 89 91 90 87 84 85 87 90 92 93 91 88 86 81 75 70 64 65 68 71 76 79 83 86 90 91 93 95 96 97 98 99 98 99 99 99
68 68 67 68 69 70 70 71 71 72 73 74 75 75 75 74 73 72 71 70 70 69 69 70 70 70 70 70 72 74 76 78 80 81 80 78 77 75 74 73 73 74 75 77 77 77 79 82 86 89 89 88 85 82 80 81 83 86 90 94 94 90 85 79 72 67 64 63 66 69 72 74 77 81 84 86 90 94 95 96 96 96 96 97 98 99
70 70 70 71 72 72 72 72 73 74 76 76 76 76 75 74 73 72 71 71 70 70 70 71 71 71 72 74 75 77 79 80 81 80 79 77 76 75 74 74 75 76 77 78 80 82 87 91 92 92 91 87 83 80 77 73 70 69 76 85 89 89 86 80 75 70 67 66 67 69 69 72 76 80 80 84 87 90 93 96 97 97 96 96 97 98
73 73 74 75 75 75 74 74 75 77 77 77 76 76 75 74 73 73 72 71 70 70 71 72 72 73 74 76 78 79 80 80 79 79 78 78 78 79 78 79 80 80 81 83 86 90 95 96 96 95 93 88 84 80 77 69 62 57 61 70 77 81 83 79 74 70 69 69 69 69 70 70 72 75 77 81 84 88 91 95 97 97 97 97 97 98
77 77 78 78 78 77 76 76 77 77 77 76 76 76 76 75 73 72 70 70 70 71 72 73 74 74 74 75 75 76 77 77 77 77 78 78 79 80 80 82 82 84 87 90 93 96 98 96 95 92 89 84 81 79 78 74 67 61 57 61 68 74 77 72 68 66 66 67 69 71 73 74 76 79 81 85 87 89 92 94 95 96 96 97 97 97
82 82 81 81 80 79 78 77 76 75 74 75 76 77 76 74 72 70 70 70 71 73 74 75 73 71 70 69 70 71 73 75 77 79 79 79 79 79 79 82 85 89 93 95 95 93 89 86 82 79 77 73 71 71 73 76 75 71 68 69 72 74 72 67 64 63 64 64 66 68 70 74 78 82 87 89 91 93 95 95 95 95 95 95 95 96
86 86 84 83 81 79 78 75 74 73 74 76 77 77 76 74 72 71 71 72 74 75 75 73 70 68 66 66 67 70 73 77 79 81 82 80 79 78 78 82 87 91 94 88 82 75 69 65 62 61 60 59 58 60 65 69 72 72 71 72 72 71 68 65 64 63 63 62 62 64 66 70 75 80 85 87 90 92 95 96 96 95 93 93 95 97
87 86 83 81 79 77 76 74 74 75 77 78 78 77 76 76 75 76 77 78 77 74 72 70 68 68 69 70 72 75 77 80 81 82 81 79 78 78 80 85 89 90 85 74 65 58 55 54 53 53 53 53 53 56 59 62 64 66 67 68 68 68 66 65 64 63 63 62 62 62 65 68 73 78 83 85 88 90 94 96 97 96 95 93 94 96
83 82 81 79 78 77 77 77 78 78 79 79 78 77 76 77 78 80 81 77 74 72 70 71 72 74 76 78 79 80 81 82 81 80 78 75 75 77 82 88 89 84 73 64 60 59 59 61 63 64 65 63 62 60 57 59 61 64 67 68 68 68 67 66 65 64 65 64 65 66 68 70 73 78 82 86 90 93 95 97 98 98 97 96 96 96
83 81 81 80 79 79 79 80 81 81 80 79 78 77 76 76 75 75 75 72 72 73 75 77 79 80 82 83 83 82 83 81 79 77 74 73 75 80 88 89 83 73 62 59 60 62 65 69 72 74 74 71 68 63 60 59 60 63 67 68 68 67 67 66 66 66 67 68 69 72 74 75 76 78 80 85 88 92 97 98 98 98 99 98 98 97
84 83 83 82 82 83 84 84 83 81 79 77 76 75 74 72 72 72 73 74 77 80 83 85 85 85 84 83 82 81 79 76 74 73 73 77 83 89 92 84 73 63 60 62 65 67 70 72 73 72 70 68 66 65 63 62 63 66 68 69 68 67 66 65 65 66 67 69 72 75 77 78 78 77 79 81 85 89 95 96 96 97 99 99 98 97
87 86 87 86 85 83 83 81 79 78 76 76 75 75 75 74 74 76 79 82 84 85 86 89 89 86 83 79 76 73 71 70 72 76 83 89 92 90 81 72 65 62 65 70 73 73 71 70 68 65 62 62 62 62 62 63 66 69 70 69 68 67 66 67 67 67 68 71 74 76 76 76 76 76 77 78 81 85 90 93 96 97 97 99 99 97
89 88 87 85 82 80 79 79 79 79 78 77 77 77 77 78 79 83 86 88 88 89 90 92 89 83 76 71 69 67 68 74 83 91 95 92 83 73 66 66 67 69 71 73 73 71 67 65 62 61 60 60 61 62 65 69 71 72 70 68 67 67 67 68 69 70 72 73 75 76 75 75 75 76 76 77 78 80 83 87 91 95 97 98 99 98
93 92 90 88 85 82 80 79 79 79 79 80 80 82 84 85 87 89 90 93 94 95 96 93 86 77 70 67 66 68 74 87 94 97 94 85 73 65 65 71 74 74 72 70 68 65 63 62 61 61 61 63 65 68 72 74 74 73 71 69 68 68 68 70 71 73 73 73 73 73 72 72 73 73 74 75 77 79 80 82 85 89 93 96 97 97
98 97 95 91 87 82 80 80 81 82 82 83 84 86 87 90 93 95 97 98 98 97 94 88 83 77 70 67 69 74 83 92 94 92 88 83 77 73 72 74 75 73 69 66 64 63 61 61 61 62 64 67 70 74 76 76 76 75 72 71 70 70 70 72 73 73 73 72 71 71 70 70 70 70 72 73 75 78 79 79 81 83 86 89 92 93
92 88 85 83 81 80 79 81 82 84 86 88 90 92 94 95 96 98 98 99 98 97 93 89 85 81 77 77 80 85 90 90 90 88 84 81 78 75 74 73 71 68 65 63 61 60 59 60 62 64 66 69 71 73 73 73 73 73 72 71 70 71 71 72 72 72 72 72 74 75 76 76 76 75 75 76 78 79 79 79 79 80 82 85 87 87
85 84 84 85 86 86 87 88 90 91 92 93 93 94 98 98 98 97 98 98 98 98 96 93 90 89 88 91 93 93 87 85 85 85 85 82 79 76 72 69 66 63 60 59 57 57 58 61 64 65 65 66 67 68 69 70 70 70 70 70 71 71 72 72 73 76 79 83 87 89 91 93 93 93 92 87 84 81 79 78 79 80 82 85 87 87
88 89 89 90 92 94 94 93 92 91 92 93 95 97 99 98 97 97 98 98 98 97 98 97 96 96 96 97 95 90 83 82 83 85 85 81 77 73 69 65 62 60 58 57 57 58 61 64 65 65 64 64 65 67 68 68 68 69 70 71 72 73 73 76 80 85 91 95 96 97 99 99 99 97 94 89 85 82 80 79 80 81 83 84 85 85
89 90 89 91 93 94 93 91 91 92 92 95 96 97 98 98 98 97 96 97 97 98 98 98 98 97 97 96 93 88 83 82 83 83 81 77 73 69 66 63 61 59 59 60 61 62 64 66 66 65 65 65 66 67 68 68 69 70 72 73 73 74 75 79 84 87 89 88 87 88 91 93 93 91 89 88 87 87 85 85 85 86 86 86 85 85
86 87 87 88 90 92 91 91 92 93 96 97 97 97 98 98 98 98 98 98 98 98 98 97 97 97 96 95 92 87 82 79 78 78 77 73 70 67 64 63 63 63 64 65 66 67 67 67 67 67 66 66 67 68 68 70 71 72 73 74 74 75 77 79 81 81 80 77 77 77 78 81 84 87 89 90 91 91 91 92 94 95 95 94 93 91
85 86 87 87 89 91 92 94 96 97 98 97 97 97 98 98 98 98 98 98 98 98 98 98 98 97 97 95 91 85 78 74 71 71 71 70 68 66 66 66 68 69 69 69 70 70 69 69 69 68 67 67 68 69 70 71 72 73 73 74 74 75 77 77 78 78 77 76 75 75 75 76 79 82 86 88 90 91 91 93 95 98 99 99 99 99
86 87 87 89 91 94 96 97 98 98 98 98 97 96 95 95 96 97 97 98 98 98 98 98 98 97 96 92 86 79 73 70 70 70 70 70 70 70 70 70 72 73 73 72 71 71 71 70 70 69 68 68 68 70 71 72 73 73 74 74 75 75 77 78 78 79 78 77 76 77 77 77 78 80 82 84 86 87 88 91 94 97 100 99 99 99
89 90 92 95 96 98 98 98 98 97 96 92 88 86 85 87 91 94 96 97 98 98 98 98 97 95 90 83 77 72 69 69 70 72 73 73 74 73 73 73 74 75 74 73 72 72 72 72 71 70 69 68 68 69 70 71 72 73 74 75 76 77 78 79 79 79 78 77 77 77 78 80 81 82 83 83 84 85 87 88 91 95 99 100 100 100
88 89 93 97 99 99 98 97 95 92 87 82 79 78 78 80 83 86 89 90 92 95 96 95 93 89 82 77 72 70 69 70 71 73 74 76 77 78 76 75 75 75 75 74 74 74 74 73 72 71 70 68 67 67 68 70 72 74 75 77 78 79 80 80 80 79 78 78 78 79 80 81 82 82 82 82 83 84 85 87 88 91 96 99 100 99
85 87 91 95 97 96 93 90 87 84 81 79 78 76 75 77 79 82 84 83 84 87 92 91 89 85 81 77 73 71 70 71 72 73 74 79 81 81 79 77 77 78 78 77 77 76 76 74 72 70 68 66 65 65 66 69 72 75 76 77 78 79 80 79 79 79 78 79 79 80 81 81 81 80 80 81 82 83 84 86 86 88 93 97 98 97
86 90 96 95 92 88 87 86 84 81 80 79 78 75 73 74 77 80 79 78 80 85 90 91 91 88 84 79 75 71 71 71 71 72 75 81 84 84 81 80 81 82 82 81 79 77 75 72 69 67 66 65 66 67 68 71 73 74 75 76 77 78 79 79 78 78 78 79 81 82 83 83 82 82 81 82 82 83 82 84 85 87 89 91 92 93
86 90 93 89 86 83 83 80 76 73 73 75 75 74 71 71 73 76 77 78 83 88 94 95 94 91 85 80 75 71 70 69 69 70 75 83 86 85 83 84 84 85 86 84 79 75 71 68 66 66 66 67 68 70 71 72 73 73 73 74 75 76 77 77 77 78 79 80 82 84 85 85 84 83 83 83 83 84 84 84 85 86 87 86 87 88
89 92 90 85 82 79 75 71 67 66 66 68 68 67 66 65 68 71 74 79 87 93 96 96 94 90 85 81 77 72 69 67 67 71 79 86 88 87 86 86 86 87 89 87 81 75 69 66 66 67 68 70 71 72 73 73 73 73 73 73 73 73 74 75 76 78 80 82 84 86 86 86 85 84 84 85 85 86 87 88 89 89 88 86 85 86
94 92 87 82 78 73 70 67 66 65 64 63 62 62 63 65 69 74 80 86 91 95 96 96 94 91 87 85 81 76 72 69 70 75 83 90 91 89 88 88 87 87 88 89 85 79 72 68 68 69 71 72 73 73 73 74 74 73 73 72 72 72 73 75 77 79 82 84 86 87 87 87 86 86 87 87 87 88 91 94 95 94 93 91 89 88
94 89 82 77 72 68 65 64 63 63 63 63 64 66 69 73 78 83 89 93 95 96 96 96 95 94 91 89 86 82 76 74 75 79 86 92 93 91 89 89 89 89 88 89 89 86 81 75 72 71 73 73 73 73 73 74 73 73 72 72 72 73 74 76 79 81 84 86 87 88 88 88 87 88 89 89 89 91 94 97 98 98 98 97 95 94
88 82 76 71 66 62 59 59 60 62 63 65 68 72 76 80 84 88 92 93 93 92 93 93 94 94 92 90 87 84 79 79 79 83 89 93 94 92 90 91 92 92 90 89 89 88 86 81 77 75 73 73 73 73 73 73 73 72 72 73 74 75 77 79 81 84 86 88 89 89 89 88 88 88 88 89 91 93 96 97 98 99 99 99 99 98
82 75 69 64 58 54 52 54 58 62 65 68 72 77 81 83 84 85 85 83 82 82 83 87 89 91 91 89 87 84 81 83 84 86 91 94 94 93 93 93 93 92 91 89 88 86 85 82 79 77 75 74 73 73 72 72 72 72 73 74 76 78 80 82 85 87 89 90 91 90 90 89 88 87 87 88 90 93 96 97 97 98 98 98 98 99
76 69 62 56 51 49 50 55 60 64 68 71 75 78 82 83 82 79 76 73 73 73 76 79 82 86 89 90 90 89 87 88 88 89 94 94 94 94 95 94 93 92 93 92 89 87 84 81 80 79 78 76 74 72 71 71 73 74 76 77 79 81 83 85 87 90 92 92 93 92 92 91 90 89 88 88 90 94 96 97 97 97 98 98 98 98
70 62 54 48 46 48 53 60 64 68 71 73 76 79 82 82 81 79 76 73 72 72 73 76 78 81 85 89 92 93 93 91 90 91 95 95 94 93 94 94 95 95 95 94 92 89 87 84 81 80 79 77 74 71 70 72 75 77 79 79 80 82 84 86 89 92 94 95 95 95 94 93 92 91 90 90 91 93 95 96 97 97 98 98 98 98
64 56 49 45 47 52 59 65 70 73 76 78 80 82 83 83 83 81 79 75 73 72 72 74 76 79 81 85 88 90 92 91 92 93 95 96 95 94 94 95 96 96 96 95 93 91 90 87 84 81 77 76 74 73 73 75 77 79 79 80 81 82 84 85 88 91 95 96 97 96 96 95 95 94 92 91 90 90 90 91 93 95 96 96 97 97
59 52 47 46 50 56 64 70 74 77 80 82 84 85 86 85 85 83 80 76 73 71 71 73 75 78 80 83 85 87 89 91 94 95 95 94 94 94 94 96 96 96 96 95 95 95 94 90 87 83 78 77 76 76 78 79 79 79 79 80 81 82 82 84 87 92 96 97 97 97 97 96 96 95 93 91 90 89 89 89 91 93 95 93 93 93
56 51 47 49 53 60 68 72 75 77 80 83 85 86 87 86 86 84 81 77 73 71 70 73 76 79 81 82 83 86 90 94 95 93 88 84 81 81 84 88 92 93 94 94 95 95 95 93 91 88 84 81 80 79 80 79 80 80 81 82 82 82 80 83 88 93 97 97 98 97 97 96 96 95 93 91 90 91 92 93 94 95 96 95 93 91
55 51 49 52 56 62 68 70 72 75 79 82 84 85 85 85 86 85 82 77 73 71 71 74 78 81 82 82 83 86 92 92 88 81 74 71 70 70 71 74 79 83 87 91 93 94 94 94 92 90 87 85 83 81 79 79 79 81 83 85 83 81 81 86 91 95 97 97 97 97 97 96 95 93 92 90 90 90 93 96 97 98 97 98 97 95
55 52 51 54 59 64 67 67 70 73 78 81 82 83 83 85 86 86 82 78 74 72 73 77 81 83 82 80 82 87 92 85 77 70 67 67 68 69 70 71 75 79 83 87 89 90 92 92 90 88 86 85 83 80 79 79 80 83 86 86 85 85 86 89 93 96 98 97 96 96 97 96 94 91 88 88 88 89 93 97 98 98 98 98 98 98
58 55 55 58 62 64 65 66 69 73 77 80 81 82 82 85 86 86 83 79 77 76 78 82 86 87 84 81 84 87 87 78 72 68 68 68 69 70 72 73 75 77 80 84 85 86 86 87 86 85 83 83 82 81 81 81 82 85 87 88 89 90 90 89 91 95 98 97 97 96 96 95 92 88 84 83 83 85 91 96 98 99 99 98 98 98
61 59 59 62 65 66 66 67 70 73 77 80 81 81 82 84 85 85 83 81 80 81 83 87 88 89 87 88 89 88 82 75 70 69 69 70 70 71 73 74 76 78 79 82 84 85 85 85 85 84 83 83 83 84 84 83 84 85 86 88 91 92 89 90 92 95 97 97 97 97 97 94 89 83 79 76 76 79 85 92 96 98 98 98 97 95
66 64 64 67 68 68 67 68 70 74 79 81 82 81 81 82 83 83 82 82 83 84 87 88 88 87 87 91 92 88 78 73 70 70 70 71 71 72 74 76 78 79 81 82 84 86 86 86 85 84 83 83 85 86 86 86 86 87 87 88 91 94 95 96 96 97 97 96 96 97 97 94 88 81 74 71 70 72 76 83 90 95 97 97 95 93
71 70 70 70 68 67 66 68 72 76 81 82 82 82 81 81 81 82 83 84 86 87 89 87 86 86 87 92 91 85 76 72 71 71 71 72 73 74 76 78 79 81 82 82 83 84 86 86 86 84 83 85 86 87 87 87 88 88 88 89 93 96 96 96 96 96 96 96 97 97 96 92 87 82 79 77 75 73 72 76 80 85 89 91 91 90
77 76 73 70 67 66 66 69 74 79 83 83 82 81 80 80 81 83 84 86 88 88 87 83 83 84 88 92 90 84 76 73 72 72 72 73 75 76 78 79 81 82 82 81 81 81 81 82 83 83 84 85 86 86 86 87 88 90 90 92 95 96 96 95 95 95 96 96 97 96 95 90 87 86 87 87 86 82 78 77 77 78 80 82 83 83
80 78 74 69 66 65 66 71 77 81 83 82 80 79 79 80 82 84 86 87 87 85 82 79 79 82 88 91 89 83 77 74 73 73 73 75 77 79 80 80 81 81 81 80 79 77 75 74 74 75 79 83 85 86 86 88 91 93 95 96 96 96 96 95 94 94 95 96 96 96 94 91 90 90 92 93 92 90 86 82 79 78 78 78 78 78
81 78 72 67 65 65 68 74 78 81 81 80 79 78 77 79 82 86 89 86 82 78 76 76 78 82 87 90 88 83 78 75 73 73 73 75 78 79 80 80 80 80 80 79 77 73 68 64 62 64 70 78 84 88 90 92 94 94 95 95 96 96 96 95 94 94 95 96 96 96 95 94 94 95 96 96 95 94 91 87 83 81 80 82 82 82
80 76 70 65 64 66 71 75 78 79 79 79 79 78 77 79 83 88 90 84 78 73 73 76 80 84 89 91 89 85 78 74 72 72 74 76 78 80 80 80 80 80 79 78 75 70 62 55 54 60 71 79 86 90 92 93 93 94 95 95 95 95 96 95 95 94 95 96 96 96 95 94 95 96 96 96 96 96 96 91 86 82 81 84 85 86
79 73 67 64 65 68 71 74 76 78 79 79 79 79 80 82 86 89 89 81 75 71 73 78 83 88 92 93 90 85 78 74 72 72 74 76 78 79 79 79 79 79 80 78 77 73 67 55 51 54 66 74 77 79 83 88 92 93 94 94 95 95 95 95 95 95 95 96 96 96 95 93 94 95 96 96 96 96 96 95 89 84 80 82 83 84
77 71 66 64 65 68 71 73 75 77 78 79 81 82 84 86 89 90 88 80 75 73 76 81 85 89 93 93 89 83 76 73 72 73 74 76 78 78 78 78 79 80 80 79 78 77 76 68 60 54 53 55 61 70 81 89 93 94 94 93 93 94 94 94 95 95 95 96 96 95 94 93 93 95 97 96 96 96 96 96 93 87 82 82 83 83
Wind_Speed
20 21 21 21 21 21 21 21 21 23 25 27 28 29 30 29 29 29 29 28 28 28 29 29 30 30 31 31 31 30 29 29 29 29 29 29 29 29 29 29 28 28 28 28 27 28 28 29 29 30 30 29 28 27 26 26 26 27 27 27 27 26 25 23 21 20 20 21 22 24 25 25 25 26 26 26 26 25 25 24 24 24 23 23 23 24
21 21 21 20 20 20 21 21 22 23 25 26 27 28 28 29 29 29 28 27 27 27 27 28 29 29 30 31 30 29 29 28 28 29 29 28 29 29 29 29 29 29 28 28 28 28 29 30 30 30 30 28 26 24 23 24 25 25 26 26 25 24 22 19 18 18 19 20 21 22 23 23 24 25 25 25 25 25 24 24 24 23 23 23 23 23
21 21 20 20 20 20 21 22 23 23 25 26 27 27 27 28 28 27 26 26 26 27 27 28 28 29 30 30 29 28 28 27 27 28 28 28 29 29 29 29 29 28 28 28 28 29 30 30 30 29 27 25 22 20 20 21 23 24 24 23 21 18 16 16 16 18 19 20 20 21 21 22 23 24 24 25 25 24 24 24 24 23 23 23 23 23
20 20 21 21 21 21 21 22 24 24 25 25 26 26 26 26 26 26 26 26 27 27 28 28 28 28 29 29 29 28 27 26 26 27 27 28 29 29 29 29 29 28 28 28 29 30 30 29 28 26 23 20 19 18 19 21 22 23 22 20 17 14 13 14 16 18 19 20 20 21 21 22 22 23 23 24 24 24 24 23 23 22 22 22 22 22
21 20 21 21 21 22 22 23 24 24 25 25 25 25 25 24 25 25 26 26 27 27 27 27 27 27 27 28 28 27 26 25 25 26 27 28 28 29 29 29 29 29 28 29 29 28 28 26 24 22 20 19 19 20 21 23 24 24 22 19 17 17 16 17 18 19 20 21 22 22 22 22 22 22 22 23 23 23 23 23 22 22 21 21 21 21
22 21 21 21 21 22 23 23 23 23 24 24 24 24 23 23 24 24 25 26 26 26 26 26 26 25 26 26 26 25 25 25 25 26 26 27 28 29 29 28 28 28 27 27 26 25 23 22 20 20 20 21 21 22 24 26 27 26 23 21 21 22 23 23 23 23 24 24 24 24 24 23 23 23 22 22 22 22 22 22 22 21 21 21 20 20
23 22 22 22 22 22 22 22 23 23 23 23 23 23 23 23 23 24 25 25 25 26 25 25 24 23 24 24 24 24 24 25 25 26 27 27 27 28 27 27 26 26 25 24 23 22 21 21 21 22 23 24 24 25 25 26 27 26 24 24 24 25 26 26 27 27 27 27 26 26 25 25 25 24 24 23 23 22 22 22 22 22 21 21 20 20
23 23 22 22 22 22 21 21 22 22 22 22 22 23 24 24 24 24 24 25 25 24 24 23 22 22 23 24 25 25 25 26 26 26 26 26 26 26 26 26 25 23 22 21 21 21 22 23 24 25 26 26 26 26 26 25 25 25 24 23 23 24 26 27 27 27 28 28 27 27 27 26 26 25 24 24 24 24 23 23 22 22 22 22 21 21
21 22 22 20 20 21 22 22 22 21 21 22 22 22 24 25 25 25 24 24 23 22 21 22 22 23 24 25 26 26 26 25 25 25 25 25 26 26 25 23 22 21 21 22 24 25 25 26 26 26 26 27 27 26 26 25 24 23 23 23 23 24 25 26 27 27 28 28 29 28 28 27 25 25 24 24 25 25 24 24 23 23 23 23 22 22
19 19 20 20 20 20 21 23 23 22 21 22 22 22 23 24 25 24 23 22 21 21 21 22 23 25 26 27 26 26 25 25 24 24 24 24 25 24 23 21 20 21 23 26 28 28 28 27 26 25 25 25 25 26 25 25 24 24 24 23 24 24 25 25 26 27 28 29 29 29 27 26 25 24 23 24 24 25 25 24 24 23 23 23 23 23
19 19 19 20 21 21 21 22 22 22 22 22 23 23 22 21 21 21 21 22 22 23 23 24 24 25 26 26 26 25 24 25 26 26 26 26 24 22 20 18 20 23 27 29 30 29 28 27 25 24 23 23 24 25 25 25 25 25 24 24 25 25 25 26 26 27 28 29 29 28 27 25 24 24 23 23 23 24 24 24 24 24 23 23 23 23
19 19 20 20 21 21 21 21 21 21 21 21 21 20 20 18 18 19 21 22 24 25 26 26 26 25 25 25 26 25 24 25 26 27 27 25 22 19 18 20 23 27 30 30 30 29 28 26 24 23 23 23 24 25 25 26 26 25 25 25 25 25 26 26 26 27 28 28 28 27 26 25 24 24 24 23 23 23 23 24 24 25 24 23 23 23
19 19 18 19 20 19 19 19 19 19 18 18 18 19 19 20 20 20 22 24 25 25 25 26 26 25 24 24 25 25 24 24 24 24 23 21 18 18 20 24 27 29 30 30 29 28 27 25 24 24 25 25 26 26 26 27 26 26 25 25 25 25 26 26 26 27 27 27 27 26 25 24 24 24 24 24 23 23 22 23 24 25 25 24 23 23
18 18 17 17 18 18 17 18 18 18 19 19 20 21 22 23 23 23 23 24 25 25 24 24 23 24 23 24 24 24 23 23 21 20 18 18 19 21 24 27 28 28 28 27 26 26 25 25 26 27 28 28 28 28 28 28 26 25 24 24 25 25 26 26 27 27 27 27 27 27 26 26 25 25 25 25 24 23 22 22 23 24 24 24 23 23
16 16 16 16 17 17 18 18 18 19 20 21 22 23 24 25 24 23 23 23 24 24 23 22 22 22 22 23 23 23 22 19 17 17 18 21 24 26 27 27 27 26 25 25 24 25 25 26 27 28 29 29 29 28 27 25 24 23 24 24 25 25 26 27 27 28 28 28 28 28 28 27 27 27 26 26 25 24 23 22 22 22 23 23 23 23
14 14 14 15 16 17 18 19 19 20 22 23 23 23 24 24 24 23 23 22 21 20 18 17 18 20 22 22 22 20 19 17 17 19 22 25 28 28 26 25 25 25 24 24 24 24 25 26 27 28 28 28 26 25 23 22 22 23 23 24 25 26 27 28 28 28 29 29 29 29 29 28 28 28 27 27 26 25 24 23 23 22 22 23 23 23
11 11 12 14 16 18 20 20 20 21 22 22 22 23 23 23 23 22 21 20 18 17 15 14 13 13 16 21 21 17 16 18 20 22 23 24 25 25 24 23 23 24 24 24 24 24 25 26 26 26 25 24 22 20 20 21 22 23 24 26 27 27 28 28 28 28 28 28 29 29 29 29 28 28 27 27 26 26 25 24 24 23 23 23 24 24
13 15 17 18 19 20 21 21 21 21 22 22 22 23 23 23 23 21 20 19 17 16 16 15 14 12 12 15 16 16 17 20 21 22 23 23 24 24 23 22 22 23 24 24 24 24 24 24 24 23 22 20 19 19 21 22 24 25 26 27 28 28 28 28 28 27 27 27 27 27 27 27 27 26 26 25 25 25 25 25 25 24 24 24 25 25
18 18 18 18 19 19 20 20 21 21 21 21 21 21 20 21 21 21 20 20 18 16 16 15 15 14 13 13 15 18 20 21 21 21 22 22 23 23 22 22 22 23 23 23 23 23 23 23 22 21 21 20 20 21 22 24 25 27 27 28 28 27 27 26 26 26 25 25 25 25 25 24 24 22 22 22 22 23 24 24 25 25 25 25 26 26
19 18 18 18 19 19 19 20 21 22 22 22 22 21 20 21 21 20 19 18 18 17 16 15 14 13 13 14 17 20 21 21 21 20 20 21 22 22 21 21 21 22 23 23 23 22 22 22 22 23 24 24 23 24 24 26 27 27 27 27 26 26 25 25 24 24 24 24 24 24 24 23 22 21 20 20 21 21 22 23 23 24 25 25 26 26
20 19 20 20 19 20 20 22 23 24 24 24 23 22 21 21 20 19 18 19 19 18 16 14 14 14 15 16 19 21 21 20 19 18 19 20 21 21 20 20 21 22 22 22 22 21 22 23 24 25 25 25 24 25 25 26 26 26 26 25 25 24 24 24 24 24 24 24 24 23 23 23 23 22 21 21 21 20 20 21 21 22 24 25 26 27
22 23 24 24 23 24 25 27 28 28 28 26 24 22 20 19 19 19 20 20 19 18 16 16 17 19 20 19 19 20 19 18 18 17 18 18 19 21 20 20 20 21 21 21 22 22 23 24 25 26 25 24 24 24 24 25 25 24 24 24 23 23 24 24 25 25 25 24 24 23 23 22 22 22 22 22 21 20 20 20 20 21 22 23 25 26
25 26 27 28 29 30 30 31 31 30 28 25 22 21 21 21 21 22 22 22 21 20 20 22 23 22 21 19 18 18 17 17 18 18 17 15 17 20 20 20 19 19 20 21 22 23 25 25 25 25 24 23 23 23 23 23 23 23 23 23 23 24 24 25 25 25 25 24 24 23 23 23 22 22 22 22 22 21 20 20 21 22 23 23 24 24
26 27 29 30 31 31 31 30 28 25 22 21 21 22 24 24 24 24 24 24 24 24 24 24 22 20 17 16 16 16 17 17 17 17 16 15 17 19 19 19 19 19 20 21 23 24 25 25 24 24 23 23 22 22 22 22 23 23 23 23 23 24 24 25 25 24 24 23 23 23 23 23 23 22 22 22 21 21 20 20 21 23 24 24 23 21
25 27 28 29 28 27 24 22 20 20 21 23 24 25 25 25 25 25 24 23 23 22 22 20 17 15 15 15 16 17 18 18 18 17 16 15 16 18 19 18 18 19 21 23 23 24 24 24 24 23 23 22 22 22 21 22 22 23 23 24 24 24 25 25 24 24 23 23 23 23 23 23 23 22 22 21 21 20 20 21 22 23 24 24 22 18
24 25 26 26 24 22 20 20 21 22 23 24 24 24 25 25 25 25 23 21 20 19 18 17 15 15 16 16 16 17 19 19 18 17 16 14 15 17 18 18 18 19 21 23 23 23 22 23 23 22 22 22 22 22 21 22 22 23 24 24 25 25 25 24 24 23 23 23 23 23 23 23 22 22 22 21 21 20 20 20 21 23 24 23 21 18
23 24 24 24 22 20 20 21 22 22 23 22 22 22 23 24 23 22 20 19 19 19 18 16 14 14 15 14 14 17 19 19 18 16 15 14 14 15 17 18 19 20 21 22 22 22 21 21 21 22 21 22 22 22 22 22 23 23 24 24 24 24 24 24 23 23 23 23 23 23 23 22 22 21 21 21 21 20 20 20 21 22 23 23 21 18
22 22 21 20 20 19 20 20 21 21 20 20 20 20 20 21 20 18 18 19 20 19 18 15 11 9 9 11 14 18 20 18 16 15 15 15 14 14 17 19 19 19 20 20 21 21 20 20 20 20 20 21 21 22 23 24 24 24 24 24 24 24 24 23 23 24 24 24 24 23 23 22 21 21 20 20 20 20 20 20 20 21 21 21 21 19
21 20 18 17 17 18 18 19 19 19 19 19 19 19 19 19 19 19 19 20 20 18 16 13 10 9 10 14 18 19 19 17 15 15 16 15 14 15 17 18 18 18 18 19 20 21 20 19 18 18 19 20 21 23 24 25 25 25 25 25 24 24 24 23 23 24 24 24 24 23 23 22 20 20 20 20 20 20 19 19 19 19 20 20 19 19
19 17 16 15 16 17 17 18 18 19 19 19 19 19 19 20 20 20 21 20 19 16 13 12 11 12 14 15 15 15 14 16 16 16 17 15 14 14 17 17 17 17 16 15 14 14 17 20 19 18 18 20 21 23 24 24 24 24 24 25 25 25 24 24 24 24 24 24 24 23 22 21 20 19 19 19 19 19 19 18 18 17 17 17 17 17
16 14 14 15 15 16 17 17 18 19 19 19 20 20 21 20 20 19 18 17 16 14 13 12 13 14 14 12 8 6 7 15 18 17 17 14 13 14 16 16 16 17 16 13 7 4 9 15 20 21 20 21 22 23 23 22 22 22 23 24 25 26 25 25 24 24 24 23 23 22 22 21 20 19 19 19 19 18 19 18 17 15 14 14 15 16
14 13 13 14 15 16 17 18 18 19 19 19 19 20 20 19 18 17 15 14 13 13 13 13 13 14 14 12 9 7 10 16 19 18 17 14 14 15 16 15 15 16 16 15 11 7 5 8 16 23 24 23 23 22 22 21 21 21 22 23 24 25 26 25 24 24 23 23 23 22 22 21 21 20 19 19 18 18 19 19 18 16 14 13 13 13
12 12 13 14 15 16 17 18 18 18 18 19 19 19 19 18 18 16 14 13 13 14 14 14 14 14 14 14 13 14 16 18 18 18 18 16 15 14 15 15 15 15 16 16 15 13 10 11 16 22 24 24 23 22 22 21 21 21 22 23 24 25 25 25 25 24 24 24 24 24 24 23 22 21 20 19 19 18 18 19 19 18 16 15 14 14
11 12 13 14 16 17 18 17 17 17 18 18 18 18 18 18 17 17 16 15 15 16 17 17 16 15 14 15 15 16 17 18 18 18 18 18 15 14 15 15 15 15 16 16 16 16 15 16 17 19 21 23 24 22 21 20 21 21 22 22 23 23 24 24 24 24 25 25 26 26 25 24 23 23 22 21 20 19 19 19 19 18 18 17 17 16
11 12 14 16 17 17 17 17 17 17 17 17 17 17 17 18 18 18 18 17 17 17 17 17 17 16 16 15 15 15 17 18 19 19 20 19 17 16 15 14 14 15 15 15 16 15 15 17 19 19 18 21 22 22 21 21 21 22 23 22 22 22 23 24 24 24 25 26 26 26 26 25 24 24 23 23 22 20 20 19 19 18 17 16 15 15
12 13 15 16 16 16 16 16 17 17 17 17 17 17 18 18 18 18 18 18 18 17 17 17 17 17 17 17 17 17 18 20 21 21 21 21 20 18 15 14 15 16 15 15 16 15 15 17 19 19 19 17 18 20 22 23 23 23 23 23 23 23 24 24 24 24 25 25 26 26 25 25 24 24 24 24 23 22 21 20 19 18 17 15 14 13
12 14 15 16 15 15 16 16 17 16 16 17 17 17 18 18 19 19 18 18 18 18 18 18 17 17 17 18 18 19 20 21 22 22 20 19 19 18 17 16 16 17 16 16 16 16 16 16 17 18 18 16 16 17 21 23 24 24 23 23 23 24 25 25 24 24 24 24 24 25 24 24 24 24 24 24 23 23 22 21 20 18 16 15 13 12
12 14 15 15 15 15 16 16 16 16 16 16 17 17 18 18 18 18 18 18 18 18 19 19 19 19 19 19 19 19 20 20 20 19 17 15 15 15 16 16 16 16 16 16 16 16 16 15 13 12 14 16 18 19 20 21 22 23 24 24 24 24 24 24 24 23 23 23 24 24 23 22 22 22 23 23 23 23 22 22 20 18 17 15 13 11
12 13 14 15 15 15 15 16 16 16 16 16 17 17 17 18 18 18 18 18 18 19 19 19 20 20 20 20 20 19 19 17 15 14 12 12 12 13 14 15 15 15 15 16 16 16 15 14 12 11 12 15 18 20 21 21 20 21 23 25 25 24 23 23 22 22 22 22 22 22 21 21 21 21 21 21 21 21 21 21 20 18 16 15 13 12
12 13 14 15 15 15 15 15 16 16 16 16 16 16 17 17 17 18 18 18 18 19 19 20 20 20 20 20 20 18 16 13 11 10 11 11 12 13 14 15 16 16 16 16 15 14 14 14 14 15 16 16 17 19 20 21 20 21 21 21 21 22 23 23 22 21 21 22 21 21 20 20 20 20 20 20 19 19 19 19 18 17 15 14 14 14
12 14 15 15 15 14 14 15 15 15 15 16 16 16 16 16 17 17 17 18 18 19 19 20 20 20 21 20 19 16 12 10 9 9 11 12 13 14 15 16 17 17 17 16 15 14 13 13 14 15 16 17 18 19 20 21 20 20 19 18 19 21 23 22 21 20 21 21 21 20 19 20 20 20 20 19 18 18 17 17 17 16 14 13 12 13
13 14 16 15 15 14 14 14 15 15 15 15 15 15 15 15 15 16 16 17 18 19 19 19 20 20 21 21 18 14 10 9 9 11 12 14 14 14 15 15 16 17 18 17 17 16 15 14 14 15 16 16 17 18 19 20 20 19 18 18 19 21 21 20 19 19 21 21 21 21 20 20 20 20 20 19 18 17 16 16 16 15 13 11 10 10
13 15 15 15 14 14 14 15 15 15 15 14 14 14 14 14 14 14 15 16 17 18 18 18 18 18 18 18 16 13 10 10 11 12 13 14 15 15 15 15 16 16 17 18 18 17 17 16 15 15 16 16 16 16 17 19 20 19 19 19 19 18 16 17 19 21 22 22 22 21 20 20 20 21 20 19 18 17 16 16 15 13 11 10 9 9
13 14 15 15 14 14 15 15 15 15 14 14 13 13 13 13 13 13 14 15 16 17 17 17 17 17 15 13 12 11 12 12 13 14 14 15 15 15 16 16 16 16 16 17 17 18 19 18 18 17 16 15 15 15 16 17 18 19 19 19 18 16 14 16 18 21 22 23 23 21 19 19 19 21 21 21 19 17 16 16 15 14 11 10 9 9
13 14 15 15 15 15 16 16 15 14 14 13 13 13 13 13 13 13 14 15 15 16 16 16 16 14 12 11 10 12 14 15 15 15 15 16 16 16 16 16 16 16 16 16 17 18 18 19 19 19 18 17 15 15 15 16 17 18 19 19 18 17 17 18 20 21 22 24 24 22 19 18 19 21 22 22 22 20 18 17 16 15 13 12 11 11
14 16 16 16 16 16 16 15 15 14 13 12 12 12 13 13 13 13 13 14 14 14 15 15 14 12 10 10 11 13 14 15 16 16 17 17 18 18 17 16 16 16 16 17 18 18 19 19 20 20 19 18 16 15 15 15 16 16 18 17 17 17 18 19 20 22 23 23 23 21 19 18 19 20 20 21 22 22 20 19 17 16 14 13 13 13
16 17 17 17 16 16 16 15 14 13 12 12 12 12 12 13 13 13 13 13 13 14 14 14 13 12 11 11 12 13 14 15 16 17 18 19 20 20 19 17 16 16 16 17 18 19 19 18 18 17 17 15 14 14 14 15 15 15 15 16 16 17 17 19 21 22 22 22 22 20 19 19 20 20 20 20 21 21 22 20 18 16 15 14 14 14
17 18 18 17 16 16 15 14 13 12 12 11 12 12 12 13 12 12 12 12 12 13 14 14 13 13 13 13 12 12 12 13 15 17 18 20 20 20 20 19 18 17 17 18 19 19 18 15 12 10 10 11 11 12 13 14 15 14 14 15 16 16 16 18 21 22 22 22 21 20 19 20 20 20 20 20 20 21 22 22 20 17 16 15 15 15
17 18 18 17 16 15 15 14 13 12 11 11 12 12 12 12 12 11 11 11 11 12 13 13 14 13 13 13 12 11 11 13 14 16 17 18 19 20 20 20 20 19 19 19 20 20 19 14 9 5 4 5 7 9 11 13 14 14 14 15 16 16 16 18 20 22 22 22 22 21 19 19 19 19 20 18 18 19 22 22 21 19 18 17 16 16
17 18 17 16 15 15 14 13 12 11 11 11 11 12 12 12 11 11 10 10 10 11 12 13 13 13 13 12 12 11 11 13 14 15 16 17 18 19 19 20 20 20 20 20 21 21 21 17 11 7 5 5 7 10 12 13 15 15 15 15 16 16 16 17 19 21 22 22 22 21 20 19 19 19 19 18 17 18 20 21 22 21 20 18 17 17
17 17 16 16 15 14 14 13 12 11 10 11 11 11 11 11 11 11 11 10 10 10 11 11 12 12 12 12 12 11 12 12 13 14 14 15 16 17 18 18 19 19 19 19 19 18 18 16 13 10 8 7 8 11 12 14 15 15 15 16 17 17 17 17 19 21 22 22 21 21 21 20 20 19 19 17 16 16 17 18 21 22 21 20 19 18
Wind_Direction
295 298 302 304 305 305 305 306 308 309 310 311 312 313 315 315 316 316 317 317 317 317 316 315 315 314 314 314 314 313 312 311 310 310 310 310 310 310 310 309 309 309 309 309 310 311 312 312 311 310 309 307 307 309 311 313 313 312 312 311 308 305 303 303 306 309 309 308 306 304 302 301 301 299 297 297 296 295 294 293 292 291 289 288 286 284
297 300 302 304 305 305 305 307 308 310 311 312 312 313 314 314 314 314 314 314 314 314 313 312 312 312 312 313 313 312 311 310 309 309 309 309 309 308 308 308 308 308 308 308 310 311 312 312 311 310 308 307 308 312 314 315 315 314 313 310 307 304 302 305 310 313 312 310 308 306 305 303 302 300 298 296 294 293 293 294 295 295 295 293 290 286
300 302 303 305 306 306 306 307 308 309 310 310 311 311 312 312 311 311 311 311 311 311 310 310 310 310 310 312 312 312 311 309 308 308 309 309 308 308 307 307 307 308 308 309 309 310 311 311 310 309 307 309 312 316 318 319 320 320 318 315 311 308 307 309 311 313 312 311 310 308 307 306 304 302 299 296 294 292 291 291 291 292 293 293 291 289
300 302 304 306 306 305 305 307 308 308 308 308 308 309 309 309 308 308 308 309 309 309 309 309 309 309 310 311 311 311 309 309 309 309 310 309 309 309 308 308 308 308 308 309 309 310 310 310 309 309 309 313 317 320 321 324 324 324 324 323 322 319 316 312 311 310 310 310 307 305 305 304 303 302 301 298 296 293 291 289 289 289 289 289 290 290
299 301 303 306 306 305 305 306 307 307 307 307 307 307 307 306 306 306 306 307 307 307 307 308 309 309 309 309 309 309 308 308 309 310 310 310 310 309 309 308 308 308 308 309 309 310 311 311 312 314 317 320 321 321 322 323 323 324 326 327 327 323 317 312 311 313 313 311 308 306 305 303 302 301 302 300 298 295 293 291 290 288 288 287 287 288
297 299 302 304 304 303 304 305 305 306 306 306 305 305 305 305 304 304 305 305 306 306 307 307 308 309 309 308 308 307 306 307 307 308 309 309 309 309 309 309 309 309 310 310 311 312 314 315 317 320 323 322 322 321 321 320 320 321 322 324 322 318 313 311 311 312 312 310 309 308 308 307 307 306 305 304 302 300 297 295 293 292 290 288 288 287
297 298 301 302 302 301 302 302 303 304 304 304 304 305 304 304 303 303 303 304 304 305 306 307 308 309 309 309 308 306 305 304 305 306 307 308 308 309 309 310 311 312 312 313 314 316 318 318 318 318 319 318 318 319 319 318 318 318 318 317 315 311 308 308 308 309 308 308 308 308 308 308 308 308 307 306 304 302 300 299 297 296 294 292 291 290
297 299 301 302 302 302 301 301 301 302 303 302 303 304 305 305 304 303 303 303 303 304 305 306 308 309 309 309 308 305 303 302 303 303 305 306 308 308 309 310 311 312 313 315 317 318 318 316 314 313 313 314 315 316 315 313 312 312 311 310 307 304 302 303 304 305 306 307 308 309 309 309 309 309 308 307 305 303 301 300 299 298 297 296 294 293
296 299 300 300 301 303 303 301 301 301 302 301 301 302 303 304 304 303 303 302 303 303 304 306 308 309 308 308 307 305 303 301 301 301 302 303 305 306 307 308 309 310 312 314 317 317 316 314 313 312 313 315 315 314 311 309 307 306 305 303 301 300 301 302 304 306 307 308 309 311 312 313 313 313 311 308 306 305 303 300 299 298 298 297 295 294
293 296 299 299 300 300 300 300 300 301 301 300 298 298 298 299 300 301 301 301 302 304 304 305 307 308 308 308 307 306 304 302 300 299 299 300 301 302 303 303 304 306 310 314 316 316 316 315 314 315 315 316 315 313 311 309 307 305 304 303 303 303 304 305 307 308 309 309 311 313 315 316 317 317 315 311 308 306 305 302 299 297 296 296 296 294
293 294 296 298 299 298 296 295 297 300 301 300 299 298 295 293 294 296 298 300 303 304 304 304 304 305 306 307 308 307 304 302 301 300 300 301 302 302 300 299 302 307 312 315 316 316 315 314 313 312 311 310 310 311 311 310 308 306 305 305 305 306 307 308 309 309 310 311 312 315 317 319 319 318 316 313 310 307 306 304 301 298 297 296 296 295
289 292 293 295 296 296 295 294 295 298 301 302 302 301 298 295 294 294 295 299 301 302 302 301 301 302 303 304 306 306 303 301 300 300 301 302 303 302 301 303 307 311 315 316 316 316 315 314 311 308 305 304 305 307 308 308 307 306 305 305 306 307 308 308 309 309 310 311 313 315 318 319 318 316 314 313 310 308 306 304 302 300 298 296 296 296
285 287 288 290 291 292 293 295 298 300 302 302 301 299 299 299 298 296 293 294 294 295 296 298 299 301 302 303 304 304 302 301 299 299 300 300 301 303 307 310 313 315 316 316 315 314 313 312 309 306 305 304 304 305 305 305 305 304 304 304 305 306 307 307 308 308 309 310 312 314 316 315 314 313 312 311 310 308 307 304 302 300 298 297 296 296
281 284 283 286 288 290 292 295 298 300 300 299 297 295 296 297 296 294 290 288 289 290 292 292 295 300 303 305 306 305 304 302 301 301 302 302 306 310 314 315 315 315 314 312 310 309 309 308 307 306 306 306 306 306 307 306 305 304 304 304 305 306 307 308 309 309 310 311 312 313 311 310 310 309 309 308 308 307 306 304 302 301 299 298 297 296
278 282 283 286 288 292 295 298 299 298 297 296 295 294 294 295 293 290 288 286 287 289 290 290 294 299 304 306 308 309 308 307 308 311 313 313 314 316 317 315 312 311 309 306 304 304 306 306 306 306 307 307 308 309 308 307 306 306 306 307 308 309 310 311 311 311 312 311 312 311 309 308 307 306 305 305 305 305 304 302 301 301 300 299 298 297
279 283 287 291 294 296 298 298 297 295 294 294 293 291 290 291 289 288 286 283 284 286 289 293 298 302 305 308 311 312 312 315 320 322 320 316 315 316 316 312 307 304 303 302 301 302 304 304 305 306 307 309 310 311 311 310 309 310 310 311 312 312 312 312 312 312 311 310 309 308 306 305 303 302 301 301 301 301 301 300 299 299 298 298 297 296
287 293 296 297 297 297 297 296 293 291 291 291 290 289 288 287 287 287 285 284 285 288 290 296 300 304 307 311 313 314 314 320 323 322 317 312 311 312 313 308 302 299 300 300 300 301 303 304 306 307 309 311 313 314 314 314 315 315 315 314 314 313 313 313 312 311 310 308 307 305 304 302 300 299 298 297 297 297 297 297 297 297 296 295 295 294
297 297 297 295 294 293 294 293 291 289 289 289 289 289 288 289 290 290 289 289 290 292 294 297 298 299 303 308 311 314 318 323 322 318 312 308 307 308 309 305 301 298 299 299 301 303 305 306 308 311 313 315 316 316 316 316 316 316 316 315 314 313 312 312 311 310 309 308 307 306 304 302 300 298 296 295 295 295 295 294 294 294 294 295 294 293
295 293 292 291 290 289 289 288 288 287 287 287 288 290 290 292 294 295 294 294 293 294 296 298 297 297 298 300 306 313 320 324 320 314 309 305 305 306 307 305 302 300 300 301 303 306 309 311 313 315 316 317 317 316 316 315 315 315 315 315 314 313 312 311 311 311 311 311 310 310 308 306 305 303 301 300 299 297 295 294 293 293 293 293 293 292
291 289 288 288 289 288 287 285 285 285 285 286 288 291 293 296 297 298 298 298 298 297 296 296 296 298 301 303 308 314 320 321 317 311 306 304 303 304 306 306 305 304 303 305 308 311 313 314 315 315 315 315 316 315 315 315 315 315 314 314 314 313 312 313 314 315 316 317 317 317 316 316 316 315 313 309 306 303 299 297 294 293 292 291 290 289
288 287 285 285 285 285 285 284 283 283 283 286 289 292 294 297 300 302 303 302 300 297 295 293 294 298 302 303 306 311 317 318 315 309 306 304 303 304 307 308 308 307 307 308 311 314 315 314 314 314 314 314 314 314 315 315 315 315 315 315 314 314 314 316 318 320 321 322 321 321 320 320 320 319 317 313 309 306 304 301 300 298 294 291 288 286
283 283 282 281 279 278 280 282 282 283 283 285 288 291 294 299 303 304 304 301 298 295 293 292 293 296 297 298 302 309 316 317 313 307 305 303 303 305 309 312 312 311 310 311 313 314 314 313 313 312 312 313 314 315 315 316 316 316 316 316 316 316 317 319 320 321 322 321 320 319 319 318 317 317 315 314 312 310 309 308 307 304 300 296 291 286
280 281 283 284 283 281 280 280 281 283 285 287 290 293 297 301 302 301 300 298 295 293 292 292 292 293 293 296 302 311 318 320 317 312 307 303 303 307 312 315 315 312 311 312 314 314 314 313 311 311 312 313 314 316 317 317 317 317 317 317 317 317 318 319 320 321 321 320 319 319 318 317 317 317 317 317 316 315 314 314 312 310 308 304 298 290
284 285 287 287 286 284 282 282 284 289 295 301 305 308 308 306 305 303 301 299 297 296 295 295 294 294 296 303 311 316 320 321 320 316 310 304 303 307 312 316 316 314 312 312 313 314 313 311 310 311 312 314 316 317 318 318 318 318 318 317 317 317 317 318 319 319 320 320 320 319 318 317 317 317 318 318 318 317 317 316 315 314 314 313 309 301
286 286 286 286 286 285 286 289 296 305 311 313 313 313 312 310 308 306 304 303 302 302 301 300 298 299 304 311 315 317 319 320 320 317 310 304 303 306 311 316 317 315 312 312 313 313 312 311 310 311 314 316 317 318 319 319 318 318 317 317 316 316 316 317 317 318 319 319 319 319 319 318 318 317 317 318 318 318 318 316 315 315 317 318 319 316
283 285 285 286 287 290 294 300 306 310 312 312 312 312 311 311 310 309 308 308 310 311 310 307 303 301 305 310 314 316 317 319 318 316 310 306 305 307 311 315 316 314 312 312 312 313 312 311 311 313 315 317 318 319 319 318 318 317 316 315 315 315 315 316 317 318 318 318 318 319 319 319 318 318 317 317 318 318 318 316 315 315 318 320 323 324
283 284 284 285 289 295 301 305 307 308 310 311 311 311 312 312 313 313 312 313 315 315 311 303 298 298 303 310 314 316 317 318 317 315 313 311 308 308 310 314 315 314 312 311 312 313 312 311 311 313 315 317 318 318 318 318 317 316 316 315 315 314 315 316 317 317 317 317 318 318 318 319 319 318 317 318 318 318 317 316 314 315 318 321 323 324
285 285 284 288 293 299 302 303 305 307 309 311 312 313 313 314 314 313 310 311 313 311 303 294 291 299 310 316 316 315 316 316 316 317 319 318 313 308 310 314 315 314 313 313 314 314 313 311 312 313 316 317 318 318 317 317 317 318 318 318 317 315 315 316 316 317 317 317 317 318 318 319 319 319 318 318 318 318 317 315 314 314 317 320 322 324
287 286 286 290 295 298 300 302 305 309 311 312 313 314 314 314 313 309 307 309 309 305 297 292 297 310 317 316 314 313 314 314 316 320 323 321 313 308 311 314 316 316 316 317 318 318 316 314 315 316 318 319 319 318 319 319 320 320 321 321 319 317 317 317 318 318 318 317 317 318 319 320 320 319 319 319 319 319 318 317 315 313 314 316 319 321
287 285 287 291 295 298 302 306 309 312 313 313 314 315 315 315 314 311 309 308 305 299 294 298 307 313 315 314 313 312 311 313 316 321 323 320 313 310 313 316 317 318 320 321 321 320 319 318 318 319 320 320 319 319 319 319 320 320 321 321 320 319 319 319 319 318 318 318 317 318 320 321 322 321 320 320 319 319 319 318 316 313 310 310 312 315
284 284 287 292 297 302 307 310 312 313 314 314 315 316 317 318 317 315 313 311 307 302 299 302 307 311 312 312 312 309 308 310 314 318 321 317 311 309 313 314 315 317 320 321 320 318 318 319 319 320 321 321 320 319 319 318 318 319 320 320 320 319 319 320 320 319 319 318 319 319 320 322 323 322 321 320 320 320 319 319 317 313 308 305 305 307
282 285 288 294 301 308 312 314 314 314 314 315 317 319 320 320 318 314 312 313 315 316 314 312 311 311 312 309 305 300 301 305 310 315 317 313 309 307 310 310 310 312 316 315 311 305 307 312 316 318 320 320 320 320 319 319 319 319 320 320 319 318 319 320 320 320 319 319 320 321 321 323 323 323 321 321 321 321 320 320 321 320 316 311 308 306
280 285 290 299 307 313 315 316 315 315 316 317 318 320 322 322 320 316 313 314 319 322 321 319 316 313 311 307 303 300 300 302 306 310 312 309 306 305 307 308 308 310 314 314 311 305 299 301 309 314 317 318 319 319 319 320 320 321 321 320 319 318 319 320 320 320 320 320 321 323 325 326 327 326 326 326 325 324 322 323 325 327 329 327 323 319
279 286 295 306 313 317 317 316 316 316 317 317 319 320 321 322 322 322 320 320 320 319 318 317 314 311 309 307 304 302 301 302 305 308 308 306 303 302 305 308 310 312 315 315 314 311 305 305 308 311 314 315 317 318 319 320 321 321 321 320 318 317 318 319 320 320 320 321 323 325 327 329 330 330 330 329 328 326 323 323 324 327 328 328 327 326
281 292 304 314 318 319 316 315 315 315 316 317 317 318 319 321 322 323 324 323 322 320 318 317 315 312 307 304 302 301 301 302 305 309 308 305 303 303 306 309 313 316 315 314 314 313 310 309 310 311 311 313 314 316 318 320 321 321 321 321 319 318 318 319 319 319 320 322 323 325 327 328 329 329 329 329 328 326 324 323 323 323 322 321 321 320
287 301 313 319 319 316 312 311 311 313 314 315 315 316 317 318 319 320 322 323 323 322 321 320 318 316 312 306 301 297 298 303 308 311 310 308 307 307 308 311 314 316 314 312 311 311 310 310 310 311 310 310 313 316 318 321 322 322 322 322 322 321 320 320 320 320 321 322 323 324 327 328 328 328 328 328 328 327 326 327 326 325 322 318 315 311
296 310 318 318 315 309 306 306 307 308 310 312 313 314 315 316 317 318 320 321 323 323 323 322 322 320 318 314 309 305 304 308 312 314 315 316 317 315 312 312 314 314 312 310 309 310 309 309 309 310 311 311 312 315 317 320 322 323 322 323 323 322 322 323 324 324 323 323 324 325 327 328 329 329 329 329 330 330 331 332 332 331 326 320 314 308
303 313 316 312 306 301 299 300 302 305 307 309 311 312 313 314 315 316 318 320 322 323 324 324 324 324 323 321 319 316 315 315 316 320 325 330 331 327 319 314 312 312 310 308 308 307 307 308 308 310 312 312 312 313 315 318 320 321 321 322 322 323 324 326 328 328 328 329 330 331 332 333 333 333 332 333 333 334 335 336 337 336 332 326 317 308
305 309 307 302 296 293 293 295 300 304 307 308 310 311 312 312 313 313 315 317 320 323 325 325 325 325 325 325 325 325 323 323 327 334 341 343 341 335 328 321 316 313 313 312 311 309 308 307 307 310 312 313 313 314 315 316 317 318 319 320 322 324 327 329 330 331 334 337 339 340 340 341 341 340 338 337 338 338 338 338 339 339 337 333 327 319
300 301 296 291 288 288 290 295 301 306 308 309 310 312 312 312 311 311 312 315 319 323 326 326 326 326 327 329 330 331 332 337 344 350 349 344 338 334 330 327 324 322 321 319 317 315 312 309 308 308 309 310 311 312 313 313 314 316 318 318 320 322 325 327 329 333 340 345 347 347 346 347 347 345 343 342 342 342 341 340 340 341 341 339 334 327
291 289 285 282 282 285 291 298 303 306 307 309 311 313 313 312 311 311 313 316 320 323 326 327 327 328 329 332 335 338 342 349 353 349 342 337 332 328 325 325 325 325 325 323 320 317 314 311 310 309 309 309 309 308 308 308 310 311 313 312 312 315 319 322 327 334 341 346 349 350 349 348 347 346 344 343 345 347 348 346 344 342 341 339 335 329
280 278 275 275 278 284 292 297 301 302 305 307 310 313 314 314 313 312 314 316 319 322 325 327 327 328 330 333 338 343 348 351 347 341 338 335 333 330 327 325 324 325 325 324 321 317 314 311 309 306 306 307 307 306 305 305 307 308 308 307 308 310 315 321 327 333 338 341 345 348 348 347 346 344 343 343 344 347 349 349 347 344 340 337 334 333
269 269 269 271 276 283 289 292 295 297 301 305 309 313 316 316 315 314 314 315 317 320 324 326 327 327 327 329 332 338 343 344 342 341 340 339 337 335 331 328 326 325 325 325 322 318 315 311 307 303 302 303 303 302 300 302 305 307 307 307 308 310 314 320 326 331 334 338 342 345 347 346 344 342 340 340 341 344 347 350 349 346 342 338 337 337
263 263 265 268 273 278 283 286 289 293 297 302 308 313 317 318 317 315 314 314 317 320 323 325 327 327 325 322 324 332 339 340 341 342 342 341 339 336 333 331 329 327 327 325 322 318 316 312 307 303 302 301 299 297 296 298 300 303 306 309 309 308 309 317 323 329 333 337 342 346 348 346 343 341 340 340 340 341 344 346 347 346 344 341 338 336
258 258 260 264 268 273 277 282 286 290 294 299 306 312 317 318 317 314 313 314 317 320 323 325 327 326 321 318 321 329 336 339 340 341 342 341 339 337 336 334 332 331 329 326 322 317 312 307 305 305 304 302 297 293 291 292 296 300 306 311 313 313 316 320 325 330 334 338 343 348 349 347 344 342 342 342 341 341 341 342 341 340 339 337 333 329
252 254 257 261 265 270 275 279 283 286 291 297 305 311 316 317 315 312 312 313 316 319 323 325 325 322 316 314 318 327 334 338 340 341 341 341 340 340 340 339 336 332 330 327 324 320 314 307 303 303 303 302 298 293 290 292 295 299 305 312 317 321 323 326 330 335 338 341 344 348 349 346 344 343 342 340 339 339 340 340 339 337 335 332 327 323
248 251 255 259 264 269 273 276 279 283 289 296 304 310 314 315 312 309 309 311 315 320 323 325 324 319 312 310 314 323 332 339 342 343 342 342 342 343 343 342 339 335 332 329 328 325 321 317 311 304 297 294 293 294 299 305 306 306 309 316 322 325 325 327 332 338 342 343 345 347 347 346 345 343 340 338 336 336 339 341 342 342 340 337 332 326
247 250 254 259 264 267 270 273 276 281 288 296 304 310 314 313 310 306 305 309 314 320 324 325 322 317 311 308 311 320 333 342 344 344 343 343 343 343 343 342 340 338 335 335 335 336 336 335 330 317 300 289 285 291 305 317 321 321 323 325 327 326 325 327 333 339 342 343 345 346 346 346 344 342 340 337 334 334 336 340 344 348 349 347 343 338
247 250 254 258 262 264 267 270 274 280 289 298 305 310 313 313 308 303 301 306 314 322 325 325 323 318 311 307 311 323 336 343 345 344 344 343 343 343 343 343 342 340 340 340 343 347 353 0 8 10 350 320 307 310 321 327 328 327 327 328 329 329 327 329 333 337 340 341 343 344 345 345 345 344 343 338 333 332 334 338 342 347 351 351 347 344
247 250 254 257 260 262 265 268 274 281 289 298 305 309 312 311 306 301 300 305 314 322 326 328 326 321 315 312 317 328 337 342 343 343 342 343 344 344 344 344 344 344 344 345 347 351 356 4 16 39 49 26 358 346 342 336 332 331 332 333 334 333 331 330 332 335 338 338 340 342 344 345 347 347 347 341 335 332 334 336 339 343 348 349 347 343
248 250 253 255 257 260 263 267 273 280 289 297 303 306 308 307 304 302 301 304 311 319 325 329 328 325 321 319 321 327 333 337 340 341 341 342 344 345 345 346 347 348 348 348 349 351 353 355 358 2 6 17 6 354 348 341 337 335 335 335 336 336 334 330 331 334 336 336 338 340 343 346 349 351 350 344 337 333 333 333 335 339 344 346 346 343